sat.trackr.live / text

‹ back to catalog

STARLINK-6121

NORAD 56129 · 2023-046AP

PAYLOAD ACTIVE UNKNOWN

§ Identity

Operator
Country
US
Launch date
2023-03-29
Launch site
AFETR
Launch vehicle
Mass (kg)
RCS (m²)

Purposes: comms

External: N2YO · Heavens-Above · Gunter

§ Orbital elements

Epoch: 2026-05-25T00:06:56.045376Z

Period
94.27 min
Inclination
43.0037°
Eccentricity
0.0001465
Mean motion
15.27571960 rev/d
Perigee alt
482.1 km
Apogee alt
484.1 km
Semi-major
6,861.2 km
B*
1.2184e-4
RAAN
24.7717°
Arg perigee
260.0962°
Mean anomaly
99.9724°
Rev number
17,446

§ Raw data

STARLINK-61211 56129U 23046AP  26145.00481534  .00003091  00000+0  12184-3 0  99922 56129  43.0037  24.7717 0001465 260.0962  99.9724 15.27571960174466

JSON: /api/v1/satellites/56129 · /tle

For live sub-satellite position, see the globe view (requires WebGL).

§ Visibility from observer

Set your observer location to see the next 7 days of passes ≥ 10°. The values pass through the URL so the page stays shareable.

No JS? Fill the form by hand. The geolocation button needs JavaScript.